When you browse on this site, cookies collect data to enhance your experience and personalize the content and advertising you see.
Visit our Privacy Policy to learn more. By continuing to use the site, you agree to this use of cookies and data.
  • In Czech Republic
  • List of Countries
  • For 7 days
  • Water Temperature
  • Satellite Maps
  • Weather Map
  • Weather Widgets
  • user-avatar
    Login

    Hourly Weather Telichino

    Today, 17 February, Sunday

    Time Temperature Precipitation Wind Pressure Humidity
    00:00 -1°C° 0 mm 6 mps 745 mmHg 76%
    01:00 -1°C° 0 mm 6 mps 745 mmHg 77%
    02:00 +1°C° 0 mm 6 mps 745 mmHg 77%
    03:00 -1°C° 0 mm 6 mps 744 mmHg 80%
    04:00 -1°C° 0 mm 6 mps 744 mmHg 83%
    05:00 -1°C° 0 mm 6 mps 744 mmHg 85%
    06:00 -1°C° 0 mm 6 mps 744 mmHg 87%
    07:00 -1°C° 0 mm 6 mps 744 mmHg 89%
    08:00 0°C° 0 mm 5 mps 744 mmHg 91%
    09:00 +1°C° 0 mm 6 mps 744 mmHg 90%
    10:00 +1°C° 0 mm 6 mps 745 mmHg 88%
    11:00 +1°C° 0 mm 6 mps 745 mmHg 87%
    12:00 +2°C° 0 mm 6 mps 745 mmHg 81%
    13:00 +2°C° 0 mm 6 mps 746 mmHg 76%
    14:00 +2°C° 0 mm 6 mps 746 mmHg 71%
    15:00 +1°C° 0 mm 5 mps 746 mmHg 73%
    16:00 0°C° 0 mm 5 mps 747 mmHg 74%
    17:00 -1°C° 0 mm 5 mps 747 mmHg 75%
    18:00 -1°C° 0 mm 4 mps 748 mmHg 78%
    19:00 -2°C° 0 mm 4 mps 748 mmHg 80%
    20:00 -2°C° 0 mm 4 mps 749 mmHg 83%
    21:00 -3°C° 0 mm 4 mps 749 mmHg 84%
    22:00 -2°C° 0 mm 3 mps 750 mmHg 86%
    23:00 -2°C° 0 mm 3 mps 750 mmHg 88%

    Tomorrow, 18 February, Monday

    Time Temperature Precipitation Wind Pressure Humidity
    00:00 -4°C° 0 mm 3 mps 751 mmHg 88%
    01:00 -4°C° 0 mm 3 mps 751 mmHg 89%
    02:00 -3°C° 0 mm 2 mps 752 mmHg 90%
    03:00 -3°C° 0 mm 2 mps 752 mmHg 90%
    04:00 -4°C° 0 mm 2 mps 752 mmHg 90%
    05:00 -4°C° 0 mm 2 mps 753 mmHg 90%
    06:00 -4°C° 0 mm 2 mps 753 mmHg 89%
    07:00 -4°C° 0 mm 2 mps 753 mmHg 87%
    08:00 -4°C° 0 mm 2 mps 754 mmHg 86%
    09:00 -3°C° 0 mm 2 mps 754 mmHg 79%
    10:00 -3°C° 0 mm 2 mps 754 mmHg 71%
    11:00 -2°C° 0 mm 2 mps 754 mmHg 63%
    12:00 +1°C° 0 mm 1 mps 754 mmHg 59%
    13:00 +1°C° 0 mm 1 mps 755 mmHg 55%
    14:00 +2°C° 0 mm 1 mps 755 mmHg 51%
    15:00 +1°C° 0 mm 1 mps 755 mmHg 55%
    16:00 0°C° 0 mm 1 mps 754 mmHg 59%
    17:00 -1°C° 0 mm 0 mps 754 mmHg 62%
    18:00 -1°C° 0 mm 1 mps 754 mmHg 64%
    19:00 -1°C° 0 mm 1 mps 754 mmHg 66%
    20:00 -3°C° 0 mm 2 mps 754 mmHg 68%
    21:00 -3°C° 0 mm 2 mps 754 mmHg 69%
    22:00 -3°C° 0 mm 2 mps 754 mmHg 70%
    23:00 -4°C° 0 mm 3 mps 754 mmHg 71%

    Day after tomorrow, 19 February, Tuesday

    Time Temperature Precipitation Wind Pressure Humidity
    00:00 -4°C° 0 mm 3 mps 754 mmHg 70%
    01:00 -4°C° 0 mm 3 mps 753 mmHg 70%
    02:00 -4°C° 0 mm 4 mps 753 mmHg 70%
    03:00 -4°C° 0 mm 4 mps 753 mmHg 70%
    04:00 -4°C° 0 mm 4 mps 752 mmHg 69%
    05:00 -4°C° 0 mm 4 mps 752 mmHg 69%
    06:00 -4°C° 0 mm 4 mps 751 mmHg 68%
    07:00 -4°C° 0 mm 4 mps 751 mmHg 68%
    08:00 -5°C° 0 mm 5 mps 750 mmHg 68%
    09:00 -2°C° 0 mm 5 mps 750 mmHg 66%
    10:00 -1°C° 0 mm 5 mps 749 mmHg 65%
    11:00 -1°C° 0 mm 6 mps 749 mmHg 63%
    12:00 +1°C° 0 mm 6 mps 748 mmHg 64%
    13:00 +1°C° 0 mm 6 mps 748 mmHg 65%
    14:00 +2°C° 0 mm 6 mps 747 mmHg 66%
    15:00 +1°C° 0 mm 6 mps 746 mmHg 70%
    16:00 +1°C° 0 mm 6 mps 746 mmHg 75%
    17:00 0°C° 0 mm 5 mps 745 mmHg 79%
    18:00 0°C° 0 mm 5 mps 744 mmHg 82%
    19:00 0°C° 0 mm 5 mps 744 mmHg 84%
    20:00 0°C° 0 mm 5 mps 743 mmHg 87%
    21:00 0°C° 0 mm 5 mps 743 mmHg 88%
    22:00 0°C° 0 mm 5 mps 742 mmHg 88%
    23:00 0°C° 0 mm 5 mps 742 mmHg 89%

    20 February, Wednesday

    Time Temperature Precipitation Wind Pressure Humidity
    00:00 0°C° 0.2 mm 5 mps 742 mmHg 90%
    01:00 0°C° 0.2 mm 5 mps 742 mmHg 90%
    02:00 0°C° 0.2 mm 5 mps 741 mmHg 90%
    03:00 0°C° 0 mm 5 mps 741 mmHg 90%
    04:00 0°C° 0 mm 5 mps 741 mmHg 90%
    05:00 0°C° 0 mm 4 mps 741 mmHg 90%
    06:00 0°C° 0 mm 5 mps 741 mmHg 90%
    07:00 0°C° 0 mm 5 mps 741 mmHg 90%
    08:00 0°C° 0 mm 5 mps 741 mmHg 90%
    09:00 +1°C° 0.1 mm 6 mps 741 mmHg 88%
    10:00 +1°C° 0.1 mm 6 mps 741 mmHg 86%
    11:00 +2°C° 0.1 mm 6 mps 741 mmHg 83%
    12:00 +2°C° 0.1 mm 6 mps 741 mmHg 83%
    13:00 +2°C° 0.1 mm 7 mps 741 mmHg 83%
    14:00 +2°C° 0.1 mm 7 mps 741 mmHg 82%
    15:00 +1°C° 0.2 mm 6 mps 741 mmHg 82%
    16:00 +1°C° 0.2 mm 6 mps 741 mmHg 82%
    17:00 +1°C° 0.2 mm 6 mps 741 mmHg 82%
    18:00 -1°C° 0.1 mm 6 mps 741 mmHg 78%
    19:00 -2°C° 0.1 mm 6 mps 742 mmHg 74%
    20:00 -3°C° 0.1 mm 6 mps 742 mmHg 70%
    21:00 -4°C° 0 mm 7 mps 742 mmHg 70%
    22:00 -4°C° 0 mm 7 mps 743 mmHg 70%
    23:00 -6°C° 0 mm 7 mps 743 mmHg 70%

    21 February, Thursday

    Time Temperature Precipitation Wind Pressure Humidity
    00:00 -6°C° 0 mm 7 mps 744 mmHg 69%
    01:00 -6°C° 0 mm 7 mps 744 mmHg 68%
    02:00 -6°C° 0 mm 7 mps 744 mmHg 67%
    03:00 -6°C° 0 mm 7 mps 745 mmHg 66%
    04:00 -7°C° 0 mm 8 mps 745 mmHg 65%
    05:00 -7°C° 0 mm 8 mps 746 mmHg 65%
    06:00 -7°C° 0 mm 7 mps 747 mmHg 61%
    07:00 -8°C° 0 mm 7 mps 747 mmHg 58%
    08:00 -8°C° 0 mm 7 mps 748 mmHg 55%
    09:00 -8°C° 0 mm 7 mps 749 mmHg 52%
    10:00 -8°C° 0 mm 7 mps 749 mmHg 49%
    11:00 -6°C° 0 mm 6 mps 750 mmHg 46%
    12:00 -6°C° 0 mm 6 mps 750 mmHg 44%
    13:00 -5°C° 0 mm 6 mps 751 mmHg 43%
    14:00 -5°C° 0 mm 5 mps 751 mmHg 42%
    15:00 -5°C° 0 mm 5 mps 751 mmHg 43%
    16:00 -5°C° 0 mm 4 mps 751 mmHg 45%
    17:00 -5°C° 0 mm 3 mps 752 mmHg 46%
    18:00 -5°C° 0 mm 3 mps 752 mmHg 48%
    19:00 -5°C° 0 mm 3 mps 752 mmHg 49%
    20:00 -6°C° 0 mm 3 mps 753 mmHg 50%
    21:00 -5°C° 0 mm 2 mps 753 mmHg 51%
    22:00 -5°C° 0 mm 2 mps 753 mmHg 52%
    23:00 -5°C° 0 mm 2 mps 753 mmHg 53%

    22 February, Friday

    Time Temperature Precipitation Wind Pressure Humidity
    00:00 -5°C° 0 mm 2 mps 753 mmHg 55%
    01:00 -5°C° 0 mm 2 mps 753 mmHg 56%
    02:00 -6°C° 0 mm 2 mps 754 mmHg 57%
    03:00 -6°C° 0 mm 2 mps 754 mmHg 58%
    04:00 -6°C° 0 mm 2 mps 754 mmHg 59%
    05:00 -6°C° 0 mm 2 mps 754 mmHg 60%
    06:00 -7°C° 0 mm 3 mps 754 mmHg 59%
    07:00 -7°C° 0 mm 3 mps 755 mmHg 59%
    08:00 -9°C° 0 mm 4 mps 756 mmHg 58%
    09:00 -8°C° 0 mm 4 mps 756 mmHg 53%
    10:00 -8°C° 0 mm 4 mps 757 mmHg 48%
    11:00 -8°C° 0 mm 4 mps 757 mmHg 43%
    12:00 -7°C° 0 mm 4 mps 758 mmHg 41%
    13:00 -7°C° 0 mm 4 mps 758 mmHg 38%
    14:00 -5°C° 0 mm 4 mps 759 mmHg 35%
    15:00 -5°C° 0 mm 4 mps 760 mmHg 38%
    16:00 -6°C° 0 mm 3 mps 760 mmHg 42%
    17:00 -6°C° 0 mm 3 mps 761 mmHg 45%
    18:00 -6°C° 0 mm 3 mps 761 mmHg 48%
    19:00 -7°C° 0 mm 3 mps 762 mmHg 50%
    20:00 -7°C° 0 mm 3 mps 763 mmHg 53%
    21:00 -7°C° 0 mm 3 mps 764 mmHg 55%
    22:00 -8°C° 0 mm 3 mps 764 mmHg 57%
    23:00 -8°C° 0 mm 3 mps 764 mmHg 59%
    Show more